Regional Weather Roundup
Issued by NWS

Home | Current Version | Previous Version | Text Only | Print | Product List | Glossary Off
Versions: 1 2 3 4 5 6 7 8 9 10 11 12 13 14 15 16 17 18 19 20 21 22 23 24 25 26 27 28 29 30 31 32 33 34 35 36 37 38 39 40 41 42 43 44 45 46 47 48 49 50

000
ASUS43 KIND 200900
RWRIN

WEATHER ROUNDUP FOR INDIANA
NATIONAL WEATHER SERVICE INDIANAPOLIS IN
500 AM EDT SUN MAY 20 2018

NOTE: "FAIR" INDICATES FEW OR NO CLOUDS BELOW 12,000 FEET WITH NO
SIGNIFICANT WEATHER AND/OR OBSTRUCTIONS TO VISIBILITY.

* - STATION DOES NOT REPORT WEATHER SUCH AS PRECIPITATION OR FOG.

+ - STATION NOT QUALITY CONTROLLED BY THE NATIONAL WEATHER SERVICE.
    USE DATA WITH CAUTION...ESPECIALLY DEWPOINT AND RELATIVE
    HUMIDITY OBSERVATIONS.

INZ001>003-010>013-019-020-201000-
NORTHWEST INDIANA

CITY           SKY/WX    TMP DP  RH WIND       PRES   REMARKS
MICHIGAN CITY+ CLOUDY    50  50 100 N6        30.07R FOG
MONTICELLO +   FAIR      59  58  95 CALM      30.02R FOG
RENSSELAER +   FAIR      59  54  82 NE3       30.03R HAZE
VALPARAISO     CLOUDY    54  52  93 N6        30.05R FOG

$$

LMZ046-743>745-201000-
SOUTHERN LAKE MICHIGAN

STATION/POSITION TIME  TEMP    WIND        PRES    WAVE
                       AIR SEA DIR/SP/G            HT
                 (UTC) (F)     (DEG/KT/KT) (MB)    (FT)
BURNS HARBOR     0840   48      30/  6/  9 1018.3R
MICHIGAN CITY    0800   49      10/ 13/ 14   N/A
5NW MICH CITY    0850   48 52   40/ 10/ 12   N/A     2

$$

INZ004-005-014>016-021>024-201000-
NORTH CENTRAL INDIANA

CITY           SKY/WX    TMP DP  RH WIND       PRES   REMARKS
GOSHEN         CLOUDY    57  55  93 N8        30.04R
SOUTH BEND     CLOUDY    52  51  97 NE9       30.06R

$$

INZ006>009-017-018-025>027-201000-
NORTHEAST INDIANA

CITY           SKY/WX    TMP DP  RH WIND       PRES   REMARKS
ANGOLA *+      CLOUDY    57  55  94 CALM      30.03S
FORT WAYNE     CLOUDY    59  57  93 N5        30.05R

$$

INZ028-029-035-036-043>045-051>053-201000-
WEST CENTRAL INDIANA

CITY           SKY/WX    TMP DP  RH WIND       PRES   REMARKS
CRAWFORDSVL +  MOCLDY    62  62 100 NE8       30.02R FOG
GREENCASTLE +  FAIR      63  61  94 CALM      30.02R FOG
LAFAYETTE      FAIR      61  60  97 NE8       30.00S FOG
TERRE HAUTE    FAIR      63  63 100 W5        30.01R FOG

$$

INZ030>032-037>040-046>048-054>057-064-065-201000-
CENTRAL INDIANA

CITY           SKY/WX    TMP DP  RH WIND       PRES   REMARKS
ANDERSON       FAIR      61  60  96 CALM      30.05R FOG
INDIANAPOLIS   FAIR      66  63  90 NE10      30.01R
-EAGLE CREEK   FAIR      65  62  90 NE6       30.00R FOG
KOKOMO +       FAIR      59  58  96 SE3       30.04R FOG
MT COMFORT *+  FAIR      61  61 100 NE6       30.02S
SHELBYVILLE    FOG       64  61  90 CALM      30.01R VSB 1/2

$$

INZ033-034-041-042-049-050-058-059-201000-
EAST CENTRAL INDIANA

CITY           SKY/WX    TMP DP  RH WIND       PRES   REMARKS
MUNCIE         FAIR      61  58  90 N3        30.04R FOG
RICHMOND +     FOG       61  61 100 CALM      30.04R VSB 3/4

$$

INZ060-061-067>069-081>083-085>088-201000-
SOUTHWEST INDIANA

CITY           SKY/WX    TMP DP  RH WIND       PRES   REMARKS
EVANSVILLE     FAIR      67  63  87 CALM      30.00R
HUNTINGBURG +  FAIR      65  63  93 N5        30.02R

$$

INZ062-063-066-070>080-084-089>092-201000-
SOUTH CENTRAL AND SOUTHEAST INDIANA

CITY           SKY/WX    TMP DP  RH WIND       PRES   REMARKS
BLOOMINGTON    FAIR      64  63  96 CALM      30.00R
FRENCH LICK *+ FAIR      63 N/A N/A CALM      30.01R
SEYMOUR +      FAIR      64  63  94 E3        30.00F FOG

$$




USA.gov is the U.S. government's official web portal to all federal, state and local government web resources and services.